Allentown, PA

8:13 PM EDT on October 20, 2017 (GMT -0400)
Lehigh Valley International

Weather History for KABE - June, 2013

Change the Weather History Date:

Friday, June 7, 2013

  Actual Average Record
Temperature  
Mean Temperature 62 °F 67 °F  
Max Temperature 64 °F 78 °F 98 °F (1925)
Min Temperature 60 °F 56 °F 42 °F (1958)
Degree Days  
Heating Degree Days 3 2  
Month to date heating degree days 9 17  
Since 1 June heating degree days 9 17  
Since 1 July heating degree days 5404 5785  
Cooling Degree Days 0 4  
Month to date cooling degree days 33 23  
Year to date cooling degree days 105 68  
Since 1 June cooling degree days 33 23  
Growing Degree Days 12 (Base 50)    
Moisture  
Dew Point 60 °F    
Average Humidity 95    
Maximum Humidity 100    
Minimum Humidity 90    
Precipitation  
Precipitation 1.82 in 0.14 in 1.82 in (2013)
Month to date precipitation 3.25 0.98  
Year to date precipitation 16.80 17.80  
Snow  
Snow 0.00 in 0.00 in 0.00 in (2002)
Month to date snowfall 0.0 0.0  
Since 1 June snowfall 0.0 0.0  
Since 1 July snowfall 21.4 32.9  
Snow Depth 0.00 in    
Sea Level Pressure  
Sea Level Pressure 29.81 in    
Wind  
Wind Speed 10 mph (ENE)    
Max Wind Speed 21 mph    
Max Gust Speed 28 mph    
Visibility 6 miles    
Events Rain    
T = Trace of Precipitation, MM = Missing Value Source: NWS Daily Summary

Daily Weather History Graph

Daily Weather History Graph

Search for Another Location

Airport or City:

Trip Planner

Search our weather history database for the weather conditions in past years. The results will help you decide how hot, cold, wet, or windy it might be!

Date:

Astronomy

Jun. 07, 2013 Rise Set
Actual Time 5:30 AM EDT 8:30 PM EDT
Civil Twilight 4:57 AM EDT 9:03 PM EDT
Nautical Twilight 4:16 AM EDT 9:45 PM EDT
Astronomical Twilight 3:27 AM EDT 10:34 PM EDT
Moon 4:52 AM EDT (6/7) 7:42 PM EDT (6/7)
Length of Visible Light 16h 05m
Length of Day
14h 59m
Waning Crescent, 1% of the Moon is Illuminated
Jun 7
Waning Crescent
Jun 8
New
Jun 16
First Quarter
Jun 23
Full
Jun 30
Last Quarter

Hourly Weather History & Observations

Time (EDT) Temp. Dew Point Humidity Pressure Visibility Wind Dir Wind Speed Gust Speed Precip Events Conditions
12:20 AM 60.8 °F 57.2 °F 88% 29.96 in 10.0 mi ESE 6.9 mph - 0.00 in   Overcast
12:51 AM 61.0 °F 57.9 °F 90% 29.96 in 10.0 mi ESE 8.1 mph - 0.01 in Rain Light Rain
1:40 AM 60.8 °F 57.2 °F 88% 29.94 in 10.0 mi ESE 8.1 mph - 0.00 in Rain Light Rain
1:51 AM 61.0 °F 57.9 °F 90% 29.93 in 10.0 mi ESE 8.1 mph - 0.00 in Rain Light Rain
2:23 AM 60.8 °F 59.0 °F 94% 29.93 in 9.0 mi East 5.8 mph - 0.02 in Rain Light Rain
2:51 AM 61.0 °F 59.0 °F 93% 29.91 in 10.0 mi ESE 6.9 mph - 0.03 in Rain Light Rain
3:05 AM 60.8 °F 59.0 °F 94% 29.91 in 6.0 mi ESE 8.1 mph - 0.02 in Rain Rain
3:32 AM 60.8 °F 59.0 °F 94% 29.90 in 4.0 mi East 10.4 mph - 0.04 in Rain Rain
3:51 AM 60.1 °F 59.0 °F 96% 29.89 in 9.0 mi East 8.1 mph - 0.09 in Rain Light Rain
4:22 AM 60.8 °F 59.0 °F 94% 29.88 in 2.5 mi ENE 8.1 mph - 0.09 in Rain Heavy Rain
4:51 AM 60.1 °F 59.0 °F 96% 29.88 in 2.5 mi NE 8.1 mph - 0.32 in Rain Heavy Rain
4:55 AM 60.8 °F 59.0 °F 94% 29.88 in 3.0 mi NE 9.2 mph - 0.01 in Rain Rain
4:58 AM 60.8 °F 59.0 °F 94% 29.88 in 2.5 mi NE 9.2 mph - 0.02 in Rain Rain
5:47 AM 60.8 °F 59.0 °F 94% 29.87 in 6.0 mi ENE 9.2 mph - 0.13 in Rain Rain
5:51 AM 60.1 °F 59.0 °F 96% 29.87 in 8.0 mi ENE 9.2 mph - 0.14 in Rain Light Rain
6:51 AM 61.0 °F 59.0 °F 93% 29.87 in 10.0 mi NE 10.4 mph - 0.04 in Rain Light Rain
7:21 AM 60.8 °F 60.8 °F 100% 29.87 in 2.0 mi ENE 8.1 mph - 0.04 in Rain Rain
7:51 AM 61.0 °F 60.1 °F 97% 29.86 in 2.0 mi ENE 9.2 mph - 0.10 in Rain Rain
7:58 AM 60.8 °F 60.8 °F 100% 29.86 in 1.8 mi ENE 6.9 mph - 0.02 in Rain Rain
8:20 AM 60.8 °F 60.8 °F 100% 29.86 in 2.5 mi NNE 6.9 mph - 0.13 in Rain Rain
8:38 AM 60.8 °F 60.8 °F 100% 29.86 in 1.8 mi NE 5.8 mph - 0.17 in Rain Rain
8:51 AM 61.0 °F 60.1 °F 97% 29.86 in 2.0 mi NE 8.1 mph - 0.20 in Rain Light Rain
8:54 AM 60.8 °F 60.8 °F 100% 29.86 in 3.0 mi NE 5.8 mph - 0.00 in Rain Light Rain
9:51 AM 62.1 °F 61.0 °F 96% 29.86 in 3.0 mi ENE 10.4 mph - 0.05 in Rain Light Rain
10:51 AM 63.0 °F 61.0 °F 93% 29.85 in 4.0 mi ENE 11.5 mph - 0.04 in Rain Light Rain
11:51 AM 63.0 °F 62.1 °F 97% 29.85 in 6.0 mi ENE 9.2 mph - 0.03 in Rain Light Rain
12:51 PM 64.0 °F 62.1 °F 93% 29.84 in 6.0 mi ENE 10.4 mph - 0.06 in Rain Light Rain
1:25 PM 62.6 °F 62.6 °F 100% 29.82 in 2.5 mi ENE 10.4 mph - 0.08 in Rain Rain
1:32 PM 62.6 °F 62.6 °F 100% 29.82 in 5.0 mi ENE 11.5 mph - 0.09 in Rain Light Rain
1:51 PM 63.0 °F 62.1 °F 97% 29.81 in 5.0 mi ENE 10.4 mph - 0.13 in Rain Rain
2:51 PM 64.0 °F 62.1 °F 93% 29.79 in 7.0 mi ENE 9.2 mph - 0.08 in Rain Light Rain
3:51 PM 64.0 °F 62.1 °F 93% 29.76 in 7.0 mi NE 11.5 mph - 0.06 in Rain Light Rain
4:51 PM 63.0 °F 61.0 °F 93% 29.74 in 10.0 mi NE 10.4 mph - 0.06 in Rain Light Rain
5:51 PM 63.0 °F 61.0 °F 93% 29.71 in 7.0 mi ENE 15.0 mph - 0.02 in Rain Light Rain
6:51 PM 62.1 °F 61.0 °F 96% 29.72 in 4.0 mi NE 9.2 mph - 0.04 in Rain Rain
7:06 PM 62.6 °F 60.8 °F 94% 29.72 in 2.5 mi NE 12.7 mph - 0.04 in Rain Rain
7:15 PM 62.6 °F 60.8 °F 94% 29.72 in 4.0 mi NE 11.5 mph - 0.06 in Rain Light Rain
7:36 PM 62.6 °F 60.8 °F 94% 29.70 in 3.0 mi NE 16.1 mph - 0.10 in Rain Rain
7:47 PM 62.6 °F 60.8 °F 94% 29.69 in 2.5 mi ENE 17.3 mph - 0.13 in Rain Heavy Rain
7:51 PM 62.1 °F 60.1 °F 93% 29.69 in 2.5 mi ENE 16.1 mph - 0.14 in Rain Heavy Rain
8:04 PM 62.6 °F 60.8 °F 94% 29.67 in 3.0 mi ENE 17.3 mph 27.6 mph 0.06 in Rain Heavy Rain
8:38 PM 62.6 °F 60.8 °F 94% 29.64 in 10.0 mi NE 16.1 mph 24.2 mph 0.12 in Rain Light Rain
8:51 PM 62.1 °F 60.1 °F 93% 29.65 in 10.0 mi NE 13.8 mph - 0.12 in Rain Light Rain
9:51 PM 62.1 °F 60.1 °F 93% 29.68 in 10.0 mi NE 10.4 mph - 0.04 in Rain Light Rain
10:51 PM 62.1 °F 59.0 °F 90% 29.68 in 10.0 mi North 9.2 mph - 0.00 in   Overcast
11:36 PM 60.8 °F 59.0 °F 94% 29.67 in 10.0 mi North 6.9 mph - 0.00 in Rain Light Rain
11:51 PM 61.0 °F 59.0 °F 93% 29.67 in 10.0 mi NNW 8.1 mph - 0.00 in Rain Light Rain